Regional Weather Roundup
Issued by NWS

Home | Current Version | Previous Version | Graphics & Text | Print | Product List | Glossary On
Versions: 1 2 3 4 5 6 7 8 9 10 11 12 13 14 15 16 17 18 19 20 21 22 23 24 25 26 27 28 29 30 31 32 33 34 35 36 37 38 39 40 41 42 43 44 45 46 47 48 49 50
000
ASUS43 KTOP 030359
RWRKS

WEATHER ROUNDUP FOR KANSAS
NATIONAL WEATHER SERVICE GOODLAND KS
1000 PM CST MON MAR 02 2015

NOTE:  "FAIR" INDICATES FEW OR NO CLOUDS BELOW 12,000 FEET WITH NO
SIGNIFICANT WEATHER AND/OR OBSTRUCTIONS TO VISIBILITY.

KSZ001>006-013>018-027>032-041>047-030500-
NORTHWEST KANSAS

CITY           SKY/WX    TMP DP  RH WIND       PRES   REMARKS
GOODLAND       CLOUDY    32  30  92 S25G33    29.61F WCI  19
HAYS           FAIR      28  18  64 SE16      29.83F WCI  17
HILL CITY      FAIR      30  22  72 S12       29.79F WCI  20
RUSSELL        FAIR      30  23  75 S18       29.85F WCI  18
$$

KSZ061>065-074>080-084>089-030500-
SOUTHWEST KANSAS

CITY           SKY/WX    TMP DP  RH WIND       PRES   REMARKS
DODGE CITY     FAIR      33  26  75 S15G23    29.82F WCI  23
ELKHART          N/A     36  29  76 SW12        N/A  WCI  28
GARDEN CITY    FAIR      34  30  85 S31G40    29.75F WCI  20
GREAT BEND     FAIR      30  21  69 S21G26    29.87F WCI  17
LIBERAL        FAIR      36  30  80 S21G28    29.83F WCI  24
$$

KSZ066>073-081>083-090>101-030500-
SOUTHEAST KANSAS

CITY           SKY/WX    TMP DP  RH WIND       PRES   REMARKS
CHANUTE        CLOUDY    33  31  92 S12       30.07F FOG     WCI  24
COFFEYVILLE    CLOUDY    35  33  92 S10       30.10F FOG     WCI  27
HUTCHINSON     MOCLDY    32  26  78 S18       29.95F WCI  20
MEDICINE LODGE   N/A     32  27  81 S10G18    29.95F WCI  24
NEWTON         CLOUDY    30  25  80 S15       29.99F WCI  19
PARSONS        CLOUDY    34  33  96 S7        30.09F FOG
WICHITA INTL   CLOUDY    31  29  92 S17       30.00F FOG     WCI  19
WICHITA JABRA  CLOUDY    31  30  96 S14       30.01F FOG     WCI  21
WINFIELD       CLOUDY    32  32 100 S13       30.04F FOG     WCI  22
$$

KSZ007>012-019>026-033>040-048>060-102>105-030500-
NORTHEAST KANSAS

CITY           SKY/WX    TMP DP  RH WIND       PRES   REMARKS
CONCORDIA      FAIR      31  25  78 S12       29.92F WCI  22
EMPORIA        CLOUDY    31  30  96 SE14      30.00F FOG     WCI  21
LAWRENCE       CLOUDY    34  23  64 SE12      30.03F WCI  25
MANHATTAN      CLOUDY    33  29  85 S12       29.99F WCI  24
OLATHE IND     CLOUDY    33  23  66 SE17      30.04F WCI  22
OLATHE EXE     CLOUDY    33  22  63 SE14      30.04F WCI  23
SALINA         FAIR      33  25  72 S20G25    29.95F WCI  21
TOPEKA BILLARD CLOUDY    35  24  64 S15G23    30.06S WCI  25
TOPEKA FORBES  CLOUDY    35  25  66 S13G22    30.04S WCI  26
$$



USA.gov is the U.S. government's official web portal to all federal, state and local government web resources and services.